Location: Krakow
(50.0830°N, 19.9170°E)
Time: 18:44:11
(UTC+01:00)

SR - Pass Details

Date: 10 February 2023
Orbit: 582 x 867 km, 66.7° (Epoch: 20 March)

Event Time Altitude Azimuth Distance (km) Brightness Sun altitude
Rises 14:52:41 0° 266° (W) 3,093 ? 14.7°
Reaches altitude 10° 14:55:46 10° 285° (WNW) 2,119 ? 14.3°
Maximum altitude 14:59:06 19° 330° (NNW) 1,572 ? 14.0°
Drops below altitude 10° 15:02:18 10° 15° (NNE) 2,013 ? 13.6°
Sets 15:05:08 0° 34° (NE) 2,882 ? 13.3°
